Location: Piolenc
(44.1794°N, 4.7641°E)
Time: 00:12:09
(UTC+00:00)

Cosmos 1626 Rocket - Pass Details

Date: 27 January 2021
Orbit: 603 x 631 km, 82.5° (Epoch: 27 February)

Event Time Altitude Azimuth Distance (km) Brightness Sun altitude
Exits shadow 05:37:42 27° 277° (W) 1,222 4.5 -15.5°
Maximum altitude 05:37:56 27° 271° (W) 1,217 4.5 -15.5°
Drops below altitude 10° 05:41:39 10° 214° (SW) 2,000 5.9 -14.8°
Sets 05:44:08 0° 202° (SSW) 2,898 6.9 -14.4°
